STARLINK-34293, 64275

Orbit data source: Space-Track

STARLINK-34293, 64275 is a payload satellite owned by SpaceX/Seattle (US) in LEO that was launched on Wed, 04 Jun 2025 UTC via an FALCON 9 launch vehicle from the Air Force Western Test Range (AFWTR). Payload-class satellites include a variety of spacecraft equipped with specific instruments for various scientific and technological missions. These include communications satellites like Starlink; space stations such as the ISS; scientific satellites like the Hubble; Earth observation satellites from companies like Planet Labs, Umbra, and HawkEye 360; GPS; miniature CubeSats for education and research; and military/defense satellites.

Loading next visibility...
Identifier
64275, 2025-120V
Orbit
LEO
Country
Flag of USUS
Related business
Manufacturer
SpaceX/Seattle
Mission
Operational Commercial Communications
Bus & Motor
STARLINK V2MO, Unknown motor
Mass
575 kg wet, ~530 kg dry
Launch date (UTC)
2025-06-04 (1 year ago)
Launch vehicle
FALCON 9
Launch site
Air Force Western Test Range (AFWTR)
Object type
Payload
Rocket body
Debris
Shape & HBR
Box + 2 Pan, 17.7 m
Radar Cross Section
36.964 m², Large (>1 m²)

Expand to show TLE details & history
Last TLE update: 1 day ago

TLE from 1 day ago
0 STARLINK-34293
1 64275U 25120V   26170.85272120  .00012795  00000-0  44329-3 0  9996
2 64275  53.1611   2.4432 0001208 103.1139 256.9996 15.30207412 59495
Epoch: 2026-06-19T20:27Z
TLE epoch observation values (Epoch: 2026-06-19T20:27:55.111Z)
Latitude
-0.00008°
Longitude
147.38776°
Altitude
476.279 km
Speed
7.629 km/s
True Right ascension
00h 09m 46s
True Declination
0° 00' 00"
Sunlit
Object was in daylight at epoch
Visualization orbit readout
Latitude
Unknown
Longitude
Unknown
Altitude
Unknown
Speed
Unknown
Apparent Right ascension
Unknown
Apparent Declination
Unknown
Sunlit
N/A
Visualization observer readout
Local Sidereal Time
07:17:08
Azimuth
Unknown
Elevation
Unknown
Doppler factor
Unknown
Orbital elements
Apogee altitude
476.277 km
Perigee altitude
474.621 km
Semi-major axis
6,853.586 km
Eccentricity
0.00012
Inclination
53.1611°
RAAN
2.4432°
Arg. of periapsis
103.1139°
True anomaly
256.98611°
Mean anomaly
256.9996°
Eccentric anomaly
256.99286°
Mean motion
3.82531 °/min
Orbital period
94.11 mins
BSTAR
0.00044329
Loading maneuver chart data...
Computing Atmospheric mass density...
Loading historical data...
Loading historical data...
Loading historical data...
Loading historical data...
Loading historical data...
Loading historical data...
Loading historical data...

Documentation

Showing up to 5 results
|